Blits

operational
NORAD ID: 35871 Int'l Des: 2009-049 Owner: NIIPP Country: RU
LEOCIRCULARRETROGRADESSO

About Blits

Description loading...

Live Position

Loading 3D Globe...

Upcoming Passes

Altitude History

Altitude vs Time

uPlot chart will show altitude changes over time

Two-Line Element Set

1 35871U 09049G 26062.35335109 .00000030 00000-0 33525-4 0 9996
2 35871 98.7539 25.4485 0002289 269.2803 90.8113 14.22168497853435
Epoch: Mar 3, 2026 • Age: 22 hours

Current Status

Altitude 823.3 km
Velocity 7.44 km/s
Sub-Earth Point -13.31°S, 102.49°W
Launch Date Sep 17, 2009
Age 16.4 years
Type other

Technical Details

Classification Payload
Mass 7.00 kg
Dry Mass 7.00 kg
Total Mass 7.00 kg
Length 0.20 m
Diameter 0.20 m
Span 0.20 m
Shape Sphere
Manufacturer NIIPP
Bus Type Blits
Phase Status Collided
Owner/State NIIPP/RU

Large Constellations

Loading constellations...